Location: Paris
(48.6709°N, 2.3750°E)
Time: 07:56:41
(UTC+02:00)

VELOX 1 - Visible Passes

Search period start: 28 June 2022 00:00
Search period end: 08 July 2022 00:00
Orbit: 625 x 638 km, 98.4° (Epoch: 24 June)

Date Brightness Start Highest point End Pass type
(mag) Time Alt. Az. Time Alt. Az. Time Alt. Az.
30 Jun ? 04:31:38 10° ENE 04:33:05 11° NE 04:34:32 10° NE visible
01 Jul ? 04:50:53 10° E 04:53:42 17° ENE 04:56:32 10° NNE visible
02 Jul ? 05:10:49 10° ESE 05:14:23 25° ENE 05:17:57 10° N visible
05 Jul ? 04:39:04 10° E 04:41:07 13° NE 04:43:11 10° NNE visible
06 Jul ? 04:58:38 10° ESE 05:01:44 19° ENE 05:04:52 10° NNE visible
